Time,TemperatureF,DewpointF,PressureIn,WindDirection,WindDirectionDegrees,WindSpeedMPH,WindSpeedGustMPH,Humidity,HourlyPrecipIn,Conditions,Clouds,dailyrainin,SoftwareType,DateUTC
2014-01-02 00:22:00,77.0,72.0,30.01,SE,124,9.0,15.0,86,0.00,,,0.00,,2014-01-02 05:22:00,
2014-01-02 00:53:00,77.0,72.0,30.00,SE,146,11.0,19.0,86,0.00,,,0.00,,2014-01-02 05:53:00,
2014-01-02 01:22:00,77.0,72.0,30.00,SE,133,10.0,19.0,86,0.00,,,0.00,,2014-01-02 06:22:00,
2014-01-02 01:53:00,77.0,72.0,29.99,SE,142,11.0,18.0,86,0.00,,,0.00,,2014-01-02 06:53:00,
2014-01-02 02:22:00,77.0,72.0,29.98,SE,140,9.0,17.0,85,0.00,,,0.00,,2014-01-02 07:22:00,
2014-01-02 02:42:00,77.0,72.0,29.98,SE,140,13.0,17.0,85,0.00,,,0.00,,2014-01-02 07:42:00,
2014-01-02 02:52:00,77.0,72.0,29.97,SE,142,9.0,17.0,85,0.00,,,0.00,,2014-01-02 07:52:00,
2014-01-02 03:22:00,77.0,72.0,29.96,SE,133,10.0,16.0,84,0.00,,,0.00,,2014-01-02 08:22:00,
2014-01-02 03:42:00,77.0,72.0,29.96,SSE,153,10.0,15.0,84,0.00,,,0.00,,2014-01-02 08:42:00,
2014-01-02 03:53:00,77.0,72.0,29.96,SSE,167,10.0,15.0,84,0.00,,,0.00,,2014-01-02 08:53:00,
2014-01-02 04:22:00,77.0,71.0,29.96,SSE,153,12.0,16.0,83,0.00,,,0.00,,2014-01-02 09:22:00,
2014-01-02 04:53:00,77.0,71.0,29.96,SSE,163,12.0,16.0,81,0.00,,,0.00,,2014-01-02 09:53:00,
2014-01-02 05:24:00,77.0,71.0,29.96,South,169,10.0,14.0,83,0.00,,,0.00,,2014-01-02 10:24:00,
2014-01-02 05:53:00,77.0,72.0,29.96,SSE,153,11.0,17.0,84,0.00,,,0.00,,2014-01-02 10:53:00,
2014-01-02 06:23:00,77.0,72.0,29.96,South,177,10.0,14.0,84,0.00,,,0.00,,2014-01-02 11:23:00,
2014-01-02 06:53:00,77.0,72.0,29.96,SSE,153,8.0,12.0,85,0.00,,,0.00,,2014-01-02 11:53:00,
2014-01-02 07:02:00,77.0,72.0,29.96,SSE,153,8.0,12.0,85,0.00,,,0.00,,2014-01-02 12:02:00,
2014-01-02 07:22:00,77.0,72.0,29.98,SSE,168,8.0,15.0,85,0.00,,,0.00,,2014-01-02 12:22:00,
2014-01-02 07:52:00,77.0,72.0,29.98,South,175,8.0,13.0,84,0.00,,,0.00,,2014-01-02 12:52:00,
2014-01-02 08:22:00,77.0,71.0,29.99,South,178,9.0,15.0,83,0.00,,,0.00,,2014-01-02 13:22:00,
2014-01-02 08:52:00,78.0,72.0,30.00,SSE,158,10.0,13.0,83,0.00,,,0.00,,2014-01-02 13:52:00,
2014-01-02 09:22:00,78.0,72.0,30.01,South,190,6.0,12.0,83,0.00,,,0.00,,2014-01-02 14:22:00,
2014-01-02 09:52:00,79.0,73.0,30.01,South,186,8.0,11.0,82,0.00,,,0.00,,2014-01-02 14:52:00,
2014-01-02 10:22:00,80.0,74.0,30.01,South,190,9.0,14.0,81,0.00,,,0.00,,2014-01-02 15:22:00,
2014-01-02 10:53:00,81.0,74.0,30.01,South,174,10.0,14.0,79,0.00,,,0.00,,2014-01-02 15:53:00,
2014-01-02 11:24:00,82.0,75.0,29.99,SSW,199,8.0,14.0,79,0.00,,,0.00,,2014-01-02 16:24:00,
2014-01-02 11:53:00,82.0,74.0,29.98,South,187,9.0,14.0,78,0.00,,,0.00,,2014-01-02 16:53:00,
2014-01-02 12:22:00,82.0,74.0,29.96,South,169,7.0,14.0,78,0.00,,,0.00,,2014-01-02 17:22:00,
2014-01-02 12:52:00,82.0,74.0,29.95,SSW,207,8.0,13.0,78,0.00,,,0.00,,2014-01-02 17:52:00,
2014-01-02 13:22:00,83.0,75.0,29.93,SW,214,10.0,13.0,77,0.00,,,0.00,,2014-01-02 18:22:00,
2014-01-02 13:43:00,82.0,74.0,29.93,SSW,209,11.0,14.0,76,0.00,,,0.00,,2014-01-02 18:43:00,
2014-01-02 13:53:00,83.0,75.0,29.92,SSW,198,9.0,15.0,76,0.00,,,0.00,,2014-01-02 18:53:00,
2014-01-02 14:22:00,83.0,75.0,29.91,South,188,10.0,14.0,77,0.00,,,0.00,,2014-01-02 19:22:00,
2014-01-02 14:52:00,82.0,74.0,29.91,WSW,242,7.0,12.0,78,0.00,,,0.00,,2014-01-02 19:52:00,
2014-01-02 15:22:00,82.0,74.0,29.91,SSW,194,4.0,12.0,78,0.00,,,0.00,,2014-01-02 20:22:00,
2014-01-02 15:52:00,81.0,74.0,29.90,SW,218,3.0,9.0,79,0.00,,,0.00,,2014-01-02 20:52:00,
2014-01-02 16:22:00,81.0,73.0,29.90,SW,225,4.0,8.0,78,0.00,,,0.00,,2014-01-02 21:22:00,
2014-01-02 16:53:00,82.0,74.0,29.90,SW,219,6.0,9.0,77,0.00,,,0.00,,2014-01-02 21:53:00,
2014-01-02 17:23:00,81.0,73.0,29.91,WSW,242,5.0,8.0,78,0.00,,,0.00,,2014-01-02 22:23:00,
2014-01-02 17:53:00,79.0,73.0,29.91,SW,225,5.0,8.0,81,0.00,,,0.00,,2014-01-02 22:53:00,
2014-01-02 18:22:00,78.0,73.0,29.91,WSW,248,5.0,8.0,84,0.00,,,0.00,,2014-01-02 23:22:00,
2014-01-02 18:53:00,78.0,73.0,29.92,West,262,4.0,7.0,86,0.00,,,0.00,,2014-01-02 23:53:00,
2014-01-02 19:22:00,77.0,73.0,29.93,WSW,250,3.0,5.0,87,0.00,,,0.00,,2014-01-03 00:22:00,
2014-01-02 19:52:00,77.0,73.0,29.93,WSW,248,0.0,1.0,87,0.00,,,0.00,,2014-01-03 00:52:00,
2014-01-02 20:22:00,76.0,72.0,29.93,SW,231,1.0,3.0,88,0.00,,,0.00,,2014-01-03 01:22:00,
2014-01-02 20:52:00,76.0,73.0,29.94,WSW,246,2.0,3.0,89,0.00,,,0.00,,2014-01-03 01:52:00,
2014-01-02 21:22:00,76.0,73.0,29.95,West,265,1.0,3.0,90,0.00,,,0.00,,2014-01-03 02:22:00,
2014-01-02 21:42:00,76.0,73.0,29.95,West,265,1.0,3.0,90,0.00,,,0.00,,2014-01-03 02:42:00,
2014-01-02 21:53:00,76.0,73.0,29.96,West,267,2.0,3.0,90,0.00,,,0.00,,2014-01-03 02:53:00,
2014-01-02 22:22:00,76.0,73.0,29.96,WSW,257,2.0,3.0,91,0.00,,,0.00,,2014-01-03 03:22:00,
2014-01-02 22:54:00,76.0,74.0,29.96,WSW,255,2.0,3.0,92,0.00,,,0.00,,2014-01-03 03:54:00,
2014-01-02 23:23:00,76.0,74.0,29.95,WSW,240,3.0,4.0,92,0.00,,,0.00,,2014-01-03 04:23:00,
2014-01-02 23:43:00,76.0,74.0,29.95,West,261,2.0,3.0,92,0.00,,,0.00,,2014-01-03 04:43:00,
2014-01-02 23:53:00,76.0,74.0,29.95,WSW,239,2.0,6.0,92,0.00,,,0.00,,2014-01-03 04:53:00,